Retour au catalogue

STARLINK-33964

ActifCommunicationsVLEO
NORAD 64118·PAYLOAD·🇺🇸 United States

Lancé May 23, 2025 depuis Vandenberg Space Force Base

Loading…

Prochains Passages (prochaines 24 heures)

TLE

FraisSource: CelesTrak SupGP

Époque: Sep 15, 2026, 03:17 UTC

1 64118C 25110Y   26258.13729167 -.00044206  00000+0 -14216-2 0  2589
2 64118  53.1588 225.4541 0001462  88.8067  19.9936 15.31724016    13

Suivez STARLINK-33964 en temps réel avec AllMySat

Download on the App Store